St. James, MN

2:40 PM CDT on October 20, 2019 (GMT -0500)
Saint James Municipal

Weather History for KJYG - June, 2019

Change the Weather History Date:

Sunday, June 9, 2019

  Actual Average Record
Temperature  
Mean Temperature 64 °F -  
Max Temperature 71 °F 78 °F 100 °F (1985)
Min Temperature 57 °F 54 °F 44 °F (1988)
Degree Days  
Heating Degree Days 1    
Growing Degree Days 14 (Base 50)    
Moisture  
Dew Point 51 °F    
Average Humidity 61    
Maximum Humidity 100    
Minimum Humidity 38    
Precipitation  
Precipitation 0.01 in - - ()
Sea Level Pressure  
Sea Level Pressure 30.07 in    
Wind  
Wind Speed 14 mph (NW)    
Max Wind Speed 28 mph    
Max Gust Speed 36 mph    
Visibility 10 miles    
Events Rain    
Averages and records for this station are not official NWS values.
T = Trace of Precipitation, MM = Missing Value Source: NWS Daily Summary

Daily Weather History Graph

Daily Weather History Graph

Search for Another Location

Airport or City:

Astronomy

Jun. 09, 2019 Rise Set
Actual Time 5:35 AM CDT 8:59 PM CDT
Civil Twilight 4:59 AM CDT 9:35 PM CDT
Nautical Twilight 4:12 AM CDT 10:22 PM CDT
Astronomical Twilight 3:13 AM CDT 11:22 PM CDT
Moon 12:22 PM CDT (6/9) 1:33 AM CDT (6/9)
Length of Visible Light 16h 36m
Length of Day
15h 24m
Waxing Crescent, 44% of the Moon is Illuminated
Jun 9
Waxing Crescent
Jun 10
First Quarter
Jun 17
Full
Jun 25
Last Quarter
Jul 2
New

Hourly Weather History & Observations

Time (CDT) Temp. Dew Point Humidity Pressure Visibility Wind Dir Wind Speed Gust Speed Precip Events Conditions
12:15 AM 71.6 °F 48.2 °F 43% 29.92 in 10.0 mi SE 9.2 mph - N/A   Clear
12:42 AM 71.6 °F 50.0 °F 46% 29.92 in 10.0 mi SE 10.4 mph - N/A   Clear
12:58 AM 71.6 °F 50.0 °F 46% 29.91 in 10.0 mi SE 9.2 mph - N/A   Clear
1:15 AM 71.6 °F 51.8 °F 50% 29.90 in 10.0 mi SE 9.2 mph - N/A   Clear
1:44 AM 69.8 °F 51.8 °F 53% 29.92 in 10.0 mi SW 9.2 mph - N/A   Clear
1:59 AM 69.8 °F 51.8 °F 53% 29.91 in 10.0 mi South 5.8 mph - N/A   Clear
2:15 AM 69.8 °F 51.8 °F 53% 29.91 in 10.0 mi SSE 6.9 mph - N/A   Clear
2:45 AM 69.8 °F 51.8 °F 53% 29.91 in 10.0 mi South 4.6 mph - N/A   Clear
3:01 AM 66.2 °F 53.6 °F 64% 29.93 in 10.0 mi SW 5.8 mph - N/A   Scattered Clouds
3:16 AM 68.0 °F 53.6 °F 60% 29.92 in 10.0 mi SW 4.6 mph - N/A   Clear
3:35 AM 69.8 °F 60.8 °F 73% 29.94 in 10.0 mi WNW 17.3 mph - N/A   Scattered Clouds
4:02 AM 66.2 °F 60.8 °F 83% 29.95 in 10.0 mi WNW 11.5 mph - N/A   Scattered Clouds
4:17 AM 66.2 °F 60.8 °F 83% 29.97 in 10.0 mi WNW 15.0 mph 21.9 mph N/A   Mostly Cloudy
4:35 AM 66.2 °F 60.8 °F 83% 29.97 in 10.0 mi NW 15.0 mph - N/A   Overcast
4:36 AM 66.2 °F 60.8 °F 83% 29.97 in 10.0 mi NW 13.8 mph - N/A   Overcast
5:04 AM 64.4 °F 59.0 °F 83% 29.99 in 10.0 mi WNW 13.8 mph 18.4 mph N/A   Overcast
5:19 AM 64.4 °F 59.0 °F 83% 30.00 in 10.0 mi NW 17.3 mph - N/A   Overcast
5:35 AM 62.6 °F 57.2 °F 82% 29.99 in 10.0 mi NW 19.6 mph - N/A   Overcast
6:05 AM 62.6 °F 57.2 °F 82% 30.00 in 10.0 mi NW 13.8 mph - N/A   Overcast
6:21 AM 62.6 °F 57.2 °F 82% 30.01 in 10.0 mi NW 15.0 mph 20.7 mph N/A   Light Drizzle
6:36 AM 62.6 °F 55.4 °F 77% 30.02 in 10.0 mi WNW 15.0 mph 19.6 mph N/A   Mostly Cloudy
6:55 AM 62.6 °F 55.4 °F 77% 30.01 in 10.0 mi WNW 17.3 mph 24.2 mph N/A   Scattered Clouds
6:56 AM 62.6 °F 55.4 °F 77% 30.02 in 10.0 mi WNW 18.4 mph 24.2 mph N/A   Scattered Clouds
7:22 AM 62.6 °F 55.4 °F 77% 30.03 in 10.0 mi NW 16.1 mph 23.0 mph N/A   Mostly Cloudy
7:38 AM 62.6 °F 55.4 °F 77% 30.04 in 10.0 mi NW 17.3 mph 27.6 mph N/A   Mostly Cloudy
7:55 AM 62.6 °F 55.4 °F 77% 30.05 in 10.0 mi WNW 21.9 mph 27.6 mph N/A   Overcast
8:24 AM 59.0 °F 57.2 °F 94% 30.07 in 10.0 mi WNW 20.7 mph 27.6 mph N/A Rain Light Rain
8:39 AM 57.2 °F 57.2 °F 100% 30.07 in 7.0 mi WNW 20.7 mph 27.6 mph 0.01 in Rain Light Rain
8:56 AM 57.2 °F 57.2 °F 100% 30.08 in 10.0 mi WNW 15.0 mph 25.3 mph N/A Rain Rain
9:25 AM 57.2 °F 57.2 °F 100% 30.07 in 10.0 mi NW 17.3 mph 25.3 mph N/A   Mostly Cloudy
9:41 AM 59.0 °F 55.4 °F 88% 30.07 in 10.0 mi NW 18.4 mph - N/A   Mostly Cloudy
9:56 AM 62.6 °F 55.4 °F 77% 30.06 in 10.0 mi NW 23.0 mph - N/A   Scattered Clouds
10:15 AM 62.6 °F 53.6 °F 72% 30.07 in 10.0 mi NW 24.2 mph 28.8 mph N/A   Mostly Cloudy
10:42 AM 62.6 °F 51.8 °F 68% 30.08 in - NW 17.3 mph 26.5 mph N/A   Overcast
10:57 AM 62.6 °F 51.8 °F 68% 30.08 in 10.0 mi NW 24.2 mph - N/A   Overcast
11:15 AM 62.6 °F 51.8 °F 68% 30.09 in 10.0 mi NW 16.1 mph - N/A   Overcast
11:16 AM 62.6 °F 51.8 °F 68% 30.09 in 10.0 mi NW 16.1 mph - N/A   Overcast
11:44 AM 62.6 °F 51.8 °F 68% 30.10 in 10.0 mi NW 17.3 mph - N/A   Overcast
11:55 AM 64.4 °F 51.8 °F 64% 30.10 in 10.0 mi NW 19.6 mph - N/A   Overcast
12:25 PM 64.4 °F 50.0 °F 59% 30.10 in 10.0 mi NW 21.9 mph 26.5 mph N/A   Overcast
12:40 PM 64.4 °F 50.0 °F 59% 30.11 in 10.0 mi NW 24.2 mph - N/A   Mostly Cloudy
12:56 PM 66.2 °F 50.0 °F 56% 30.11 in 10.0 mi NW 21.9 mph 27.6 mph N/A   Scattered Clouds
1:15 PM 66.2 °F 51.8 °F 60% 30.11 in 10.0 mi NW 23.0 mph 28.8 mph N/A   Clear
1:42 PM 66.2 °F 51.8 °F 60% 30.11 in 10.0 mi NW 20.7 mph 26.5 mph N/A   Clear
1:57 PM 66.2 °F 51.8 °F 60% 30.11 in 10.0 mi NW 19.6 mph 25.3 mph N/A   Scattered Clouds
2:15 PM 66.2 °F 48.2 °F 52% 30.12 in 10.0 mi NW 19.6 mph 26.5 mph N/A   Scattered Clouds
2:16 PM 66.2 °F 48.2 °F 52% 30.12 in 10.0 mi NW 19.6 mph 26.5 mph N/A   Scattered Clouds
2:43 PM 66.2 °F 48.2 °F 52% 30.13 in 10.0 mi WNW 21.9 mph 28.8 mph N/A   Scattered Clouds
2:59 PM 66.2 °F 48.2 °F 52% 30.13 in 10.0 mi NW 18.4 mph 29.9 mph N/A   Scattered Clouds
3:15 PM 64.4 °F 48.2 °F 56% 30.14 in 10.0 mi NW 19.6 mph 24.2 mph N/A   Scattered Clouds
3:34 PM 66.2 °F 48.2 °F 52% 30.14 in 10.0 mi NW 18.4 mph 28.8 mph N/A   Scattered Clouds
3:45 PM 66.2 °F 48.2 °F 52% 30.14 in 10.0 mi NW 21.9 mph 31.1 mph N/A   Clear
4:00 PM 69.8 °F 46.4 °F 43% 30.13 in 10.0 mi NW 25.3 mph 35.7 mph N/A   Clear
4:16 PM 69.8 °F 46.4 °F 43% 30.14 in 10.0 mi NW 26.5 mph 34.5 mph N/A   Clear
4:35 PM 69.8 °F 46.4 °F 43% 30.14 in 10.0 mi NW 27.6 mph 34.5 mph N/A   Clear
5:02 PM 71.6 °F 46.4 °F 41% 30.14 in 10.0 mi NW 21.9 mph 29.9 mph N/A   Clear
5:17 PM 71.6 °F 44.6 °F 38% 30.14 in 10.0 mi NW 21.9 mph 29.9 mph N/A   Clear
5:35 PM 71.6 °F 46.4 °F 41% 30.14 in 10.0 mi NW 17.3 mph 28.8 mph N/A   Clear
5:36 PM 71.6 °F 46.4 °F 41% 30.13 in 10.0 mi NW 18.4 mph 28.8 mph N/A   Clear
6:03 PM 71.6 °F 46.4 °F 41% 30.14 in 10.0 mi NNW 20.7 mph 28.8 mph N/A   Scattered Clouds
6:19 PM 71.6 °F 46.4 °F 41% 30.13 in 10.0 mi NW 21.9 mph 26.5 mph N/A   Scattered Clouds
6:35 PM 71.6 °F 44.6 °F 38% 30.13 in 10.0 mi WNW 20.7 mph 29.9 mph N/A   Scattered Clouds
7:05 PM 71.6 °F 44.6 °F 38% 30.14 in 10.0 mi NW 19.6 mph - N/A   Clear
7:20 PM 71.6 °F 44.6 °F 38% 30.14 in 10.0 mi NW 21.9 mph 26.5 mph N/A   Scattered Clouds
7:36 PM 69.8 °F 44.6 °F 40% 30.15 in 10.0 mi NNW 20.7 mph 25.3 mph N/A   Scattered Clouds
7:55 PM 69.8 °F 44.6 °F 40% 30.15 in 10.0 mi NW 13.8 mph - N/A   Clear
8:22 PM 69.8 °F 44.6 °F 40% 30.16 in 10.0 mi NW 13.8 mph - N/A   Clear
8:37 PM 69.8 °F 44.6 °F 40% 30.16 in 10.0 mi NNW 15.0 mph - N/A   Clear
8:56 PM 66.2 °F 44.6 °F 46% 30.16 in 10.0 mi NW 11.5 mph - N/A   Clear
9:23 PM 64.4 °F 46.4 °F 52% 30.17 in 10.0 mi NW 8.1 mph - N/A   Clear
9:39 PM 64.4 °F 46.4 °F 52% 30.17 in 10.0 mi NW 6.9 mph - N/A   Clear
9:55 PM 62.6 °F 46.4 °F 55% 30.18 in 10.0 mi WNW 4.6 mph - N/A   Scattered Clouds
10:25 PM 62.6 °F 46.4 °F 55% 30.19 in 10.0 mi WNW 5.8 mph - N/A   Scattered Clouds
10:40 PM 59.0 °F 46.4 °F 63% 30.19 in 10.0 mi WNW 5.8 mph - N/A   Clear
10:55 PM 59.0 °F 46.4 °F 63% 30.19 in 10.0 mi West 6.9 mph - N/A   Clear
11:15 PM 60.8 °F 46.4 °F 59% 30.20 in 10.0 mi West 8.1 mph - N/A   Clear
11:42 PM 57.2 °F 46.4 °F 67% 30.20 in 10.0 mi West 6.9 mph - N/A   Scattered Clouds
11:57 PM 60.8 °F 44.6 °F 55% 30.20 in 10.0 mi WNW 10.4 mph - N/A   Clear